Location: Losili
(4.4086°N, 32.7049°E)
Time: 16:10:11
(UTC+00:00)

GOES 2 Rocket - Pass Details

Date: 18 September 2019
Orbit: 569 x 1674 km, 28.4° (Epoch: 20 October)

Event Time Altitude Azimuth Distance (km) Brightness Sun altitude
Rises 16:21:18 0° 238° (WSW) 3,251 7.8 -9.3°
Reaches altitude 10° 16:23:30 10° 237° (WSW) 2,449 7.0 -9.9°
Maximum altitude 16:29:25 82° 150° (SSE) 1,032 4.1 -11.3°
Enters shadow 16:37:13 11° 62° (ENE) 3,184 6.2 -13.3°
